| time (UTC) | temp F | wind direction | speed knots | gust knots | rain 1hr in | rain 24hr in | rain mn in | humidity % | barometer mb |
| 20260510171020 | 70 | 196 | 1.7 | 7.8 | 0.00 | 0.00 | 0.00 | 76 | 1012.5 |
| 20260510165520 | 69 | 254 | 0.0 | 6.1 | 0.00 | 0.00 | 0.00 | 78 | 1012.6 |
| 20260510164016 | 69 | 204 | 0.0 | 5.2 | 0.00 | 0.00 | 0.00 | 79 | 1012.4 |
| 20260510162515 | 72 | 206 | 2.6 | 3.5 | 0.00 | 0.00 | 0.00 | 73 | 1012.5 |
| 20260510161011 | 71 | 0 | 0.0 | 2.6 | 0.00 | 0.00 | 0.00 | 76 | 1012.5 |
| 20260510155510 | 68 | 334 | 0.0 | 2.6 | 0.00 | 0.00 | 0.00 | 81 | 1012.4 |
| 20260510154008 | 67 | 188 | 0.0 | 2.6 | 0.00 | 0.00 | 0.00 | 82 | 1012.4 |
| 20260510152504 | 68 | 245 | 1.7 | 2.6 | 0.00 | 0.00 | 0.00 | 79 | 1012.6 |
| 20260510151000 | 61 | 180 | 0.9 | 2.6 | 0.00 | 0.00 | 0.00 | 91 | 1012.8 |
| 20260510145454 | 57 | 161 | 1.7 | 4.3 | 0.00 | 0.00 | 0.00 | 96 | 1013.0 |
| 20260510143954 | 58 | 180 | 0.0 | 2.6 | 0.00 | 0.00 | 0.00 | 98 | 1013.1 |
| 20260510142450 | 57 | 270 | 0.0 | 2.6 | 0.00 | 0.00 | 0.00 | 99 | 1013.0 |
| 20260510140946 | 55 | 0 | 1.7 | 5.2 | 0.00 | 0.00 | 0.00 | 99 | 1012.8 |
| 20260510135443 | 55 | 209 | 2.6 | 6.1 | 0.00 | 0.00 | 0.00 | 99 | 1012.8 |
| 20260510133940 | 55 | 95 | 0.0 | 4.3 | 0.00 | 0.00 | 0.00 | 99 | 1012.7 |
| 20260510132435 | 56 | 90 | 0.0 | 1.7 | 0.00 | 0.00 | 0.00 | 99 | 1012.7 |
| 20260510130932 | 56 | 142 | 0.0 | 4.3 | 0.00 | 0.00 | 0.00 | 99 | 1012.0 |
| 20260510125427 | 57 | 164 | 0.0 | 2.6 | 0.00 | 0.00 | 0.00 | 99 | 1011.7 |
| 20260510123924 | 56 | 75 | 0.0 | 1.7 | 0.00 | 0.00 | 0.00 | 99 | 1012.1 |
| 20260510122422 | 54 | 195 | 0.9 | 2.6 | 0.00 | 0.00 | 0.00 | 99 | 1012.0 |
| 20260510120919 | 54 | 204 | 1.7 | 3.5 | 0.00 | 0.00 | 0.00 | 99 | 1012.0 |
| 20260510115414 | 54 | 220 | 1.7 | 3.5 | 0.00 | 0.00 | 0.00 | 99 | 1012.2 |
| 20260510113913 | 54 | 98 | 0.0 | 3.5 | 0.00 | 0.00 | 0.00 | 99 | 1012.4 |
| 20260510112410 | 54 | 106 | 0.0 | 2.6 | 0.00 | 0.00 | 0.00 | 99 | 1012.1 |
| 20260510110909 | 54 | 90 | 0.0 | 0.0 | 0.00 | 0.00 | 0.00 | 99 | 1012.3 |
| 20260510105408 | 53 | 0 | 0.0 | 1.7 | 0.00 | 0.00 | 0.00 | 99 | 1012.1 |
| 20260510103903 | 53 | 200 | 0.9 | 2.6 | 0.00 | 0.00 | 0.00 | 99 | 1012.4 |
| 20260510102404 | 53 | 99 | 0.0 | 0.9 | 0.00 | 0.00 | 0.00 | 99 | 1012.0 |
| 20260510100902 | 52 | 106 | 0.0 | 0.9 | 0.00 | 0.00 | 0.00 | 99 | 1012.3 |
| 20260510095356 | 52 | 0 | 0.0 | 0.9 | 0.00 | 0.00 | 0.00 | 99 | 1012.2 |
| 20260510093853 | 52 | 90 | 0.0 | 0.0 | 0.00 | 0.00 | 0.00 | 99 | 1011.8 |
| 20260510092348 | 52 | 120 | 0.0 | 0.9 | 0.00 | 0.00 | 0.00 | 99 | 1011.3 |
| 20260510090849 | 52 | 81 | 0.0 | 1.7 | 0.00 | 0.00 | 0.00 | 99 | 1011.1 |
| 20260510085348 | 52 | 81 | 0.0 | 0.9 | 0.00 | 0.00 | 0.00 | 99 | 1011.2 |
| 20260510083843 | 52 | 99 | 0.0 | 0.9 | 0.00 | 0.00 | 0.00 | 99 | 1011.5 |
| 20260510082339 | 52 | 83 | 0.0 | 0.9 | 0.00 | 0.00 | 0.00 | 99 | 1011.1 |
| 20260510080836 | 52 | 90 | 0.0 | 0.9 | 0.00 | 0.00 | 0.00 | 99 | 1011.5 |
| 20260510075331 | 52 | 0 | 0.0 | 2.6 | 0.00 | 0.00 | 0.00 | 99 | 1011.5 |
| 20260510073827 | 52 | 151 | 0.0 | 1.7 | 0.00 | 0.00 | 0.00 | 99 | 1011.4 |
| 20260510072322 | 52 | 90 | 0.0 | 1.7 | 0.00 | 0.00 | 0.00 | 99 | 1011.1 |
| 20260510070820 | 52 | 139 | 1.7 | 2.6 | 0.00 | 0.00 | 0.00 | 99 | 1010.8 |
| 20260510065319 | 52 | 208 | 1.7 | 4.3 | 0.00 | 0.00 | 0.00 | 99 | 1010.9 |
| 20260510063814 | 51 | 205 | 2.6 | 4.3 | 0.00 | 0.00 | 0.00 | 99 | 1010.8 |
| 20260510062309 | 52 | 200 | 5.2 | 7.8 | 0.00 | 0.00 | 0.00 | 99 | 1010.7 |
| 20260510060809 | 52 | 78 | 0.0 | 6.1 | 0.00 | 0.00 | 0.00 | 99 | 1010.9 |
| 20260510055307 | 52 | 195 | 0.0 | 3.5 | 0.00 | 0.00 | 0.00 | 99 | 1010.9 |
| 20260510053803 | 52 | 225 | 1.7 | 4.3 | 0.00 | 0.00 | 0.00 | 99 | 1011.0 |
| 20260510052306 | 53 | 202 | 2.6 | 6.1 | 0.00 | 0.00 | 0.00 | 99 | 1010.9 |
| 20260510050759 | 53 | 180 | 0.0 | 3.5 | 0.00 | 0.00 | 0.00 | 99 | 1010.8 |
| 20260510045255 | 53 | 194 | 0.9 | 1.7 | 0.00 | 0.00 | 0.00 | 99 | 1010.9 |
| 20260510043751 | 53 | 206 | 0.0 | 2.6 | 0.00 | 0.00 | 0.00 | 99 | 1011.0 |
| 20260510042247 | 52 | 99 | 0.0 | 1.7 | 0.00 | 0.00 | 0.00 | 99 | 1010.8 |
| 20260510040744 | 52 | 127 | 3.5 | 4.3 | 0.00 | 0.00 | 0.00 | 99 | 1011.3 |
| 20260510035244 | 52 | 95 | 1.7 | 2.6 | 0.00 | 0.33 | 0.33 | 99 | 1011.2 |
| 20260510033740 | 52 | 81 | 0.0 | 1.7 | 0.00 | 0.33 | 0.33 | 99 | 1011.3 |
| 20260510032236 | 51 | 156 | 0.0 | 1.7 | 0.00 | 0.33 | 0.33 | 99 | 1011.2 |
| 20260510030732 | 51 | 172 | 0.0 | 0.9 | 0.00 | 0.33 | 0.33 | 99 | 1011.4 |
| 20260510025231 | 51 | 23 | 0.0 | 0.0 | 0.02 | 0.33 | 0.33 | 99 | 1011.5 |
| 20260510023731 | 51 | 180 | 0.0 | 1.7 | 0.00 | 0.32 | 0.32 | 99 | 1011.4 |
| 20260510022231 | 51 | 90 | 0.0 | 1.7 | 0.02 | 0.32 | 0.32 | 99 | 1011.3 |
| 20260510020730 | 51 | 106 | 0.0 | 0.9 | 0.05 | 0.31 | 0.31 | 99 | 1011.7 |
| 20260510015229 | 52 | 69 | 0.0 | 2.6 | 0.05 | 0.29 | 0.29 | 98 | 1011.9 |
| 20260510013729 | 52 | 6 | 0.0 | 1.7 | 0.00 | 0.28 | 0.28 | 98 | 1012.2 |
| 20260510012226 | 51 | 14 | 0.0 | 0.9 | 0.00 | 0.28 | 0.28 | 98 | 1011.9 |
| 20260510010724 | 51 | 75 | 0.0 | 0.9 | 0.00 | 0.28 | 0.28 | 98 | 1012.0 |
| 20260510005220 | 51 | 110 | 1.7 | 1.7 | 0.00 | 0.28 | 0.28 | 98 | 1012.1 |
| 20260510003719 | 51 | 103 | 1.7 | 1.7 | 0.00 | 0.28 | 0.28 | 98 | 1012.3 |
| 20260510002217 | 52 | 159 | 1.7 | 2.6 | 0.02 | 0.28 | 0.28 | 97 | 1012.3 |
| 20260510000713 | 52 | 237 | 2.6 | 3.5 | 0.02 | 0.27 | 0.27 | 97 | 1012.5 |
| 20260509235210 | 52 | 186 | 3.5 | 7.0 | 0.00 | 0.26 | 0.26 | 99 | 1012.3 |
| 20260509233707 | 53 | 188 | 1.7 | 5.2 | 0.02 | 0.26 | 0.26 | 99 | 1012.4 |
| 20260509232203 | 53 | 262 | 0.9 | 4.3 | 0.00 | 0.26 | 0.26 | 99 | 1012.4 |
| 20260509230700 | 53 | 194 | 4.3 | 4.3 | 0.02 | 0.26 | 0.26 | 99 | 1012.4 |
| 20260509225200 | 53 | 260 | 0.0 | 3.5 | 0.02 | 0.26 | 0.26 | 99 | 1012.4 |
| 20260509223656 | 53 | 254 | 0.0 | 4.3 | 0.00 | 0.25 | 0.25 | 99 | 1012.4 |
| 20260509222151 | 53 | 239 | 2.6 | 4.3 | 0.00 | 0.25 | 0.25 | 99 | 1012.3 |
| 20260509220651 | 53 | 281 | 2.6 | 6.1 | 0.02 | 0.25 | 0.25 | 99 | 1012.1 |
| 20260509215146 | 53 | 216 | 2.6 | 13.9 | 0.09 | 0.24 | 0.24 | 99 | 1012.1 |
| 20260509213643 | 54 | 223 | 4.3 | 10.4 | 0.24 | 0.22 | 0.22 | 99 | 1011.9 |
| 20260509212138 | 54 | 205 | 2.6 | 5.2 | 0.24 | 0.14 | 0.14 | 99 | 1012.1 |
| 20260509210634 | 54 | 253 | 1.7 | 7.8 | 0.02 | 0.09 | 0.09 | 98 | 1011.9 |
| 20260509205132 | 53 | 225 | 1.7 | 7.8 | 0.00 | 0.09 | 0.09 | 98 | 1011.9 |
| 20260509203632 | 54 | 262 | 1.7 | 4.3 | 0.02 | 0.09 | 0.09 | 98 | 1011.5 |
| 20260509202132 | 54 | 196 | 0.0 | 2.6 | 0.00 | 0.08 | 0.08 | 97 | 1011.4 |
| 20260509200632 | 54 | 180 | 0.9 | 4.3 | 0.33 | 0.08 | 0.08 | 96 | 1011.3 |
| 20260509195131 | 56 | 205 | 4.3 | 7.8 | 0.00 | 0.02 | 0.02 | 88 | 1011.6 |
| 20260509193629 | 57 | 220 | 9.6 | 12.2 | 0.00 | 0.02 | 0.02 | 86 | 1011.7 |
| 20260509192129 | 58 | 239 | 3.5 | 7.0 | 0.00 | 0.02 | 0.02 | 84 | 1011.7 |
| 20260509190628 | 59 | 162 | 2.6 | 7.0 | 0.00 | 0.02 | 0.02 | 81 | 1011.8 |
| 20260509185125 | 60 | 315 | 4.3 | 12.2 | 0.00 | 0.02 | 0.02 | 78 | 1011.8 |
| 20260509183622 | 59 | 222 | 2.6 | 9.6 | 0.00 | 0.02 | 0.02 | 79 | 1012.1 |
| 20260509182116 | 61 | 172 | 4.3 | 7.8 | 0.00 | 0.02 | 0.02 | 76 | 1011.8 |
| 20260509180614 | 59 | 112 | 0.0 | 7.8 | 0.00 | 0.02 | 0.02 | 79 | 1012.0 |
| 20260509175108 | 60 | 261 | 0.0 | 5.2 | 0.00 | 0.02 | 0.02 | 78 | 1011.8 |
| 20260509173607 | 57 | 236 | 0.0 | 9.6 | 0.00 | 0.02 | 0.02 | 81 | 1012.1 |
| 20260509172102 | 56 | 304 | 4.3 | 4.3 | 0.00 | 0.02 | 0.02 | 83 | 1012.1 |